Split Airport, Croatia

12:55 AM CET on December 16, 2017 (GMT +0100)
Kastela

Weather History for LDSP - October, 2012

Change the Weather History Date:

Sunday, October 7, 2012

  Actual Average Record
Temperature  
Mean Temperature 66 °F -  
Max Temperature 74 °F - - ()
Min Temperature 57 °F - - ()
Growing Degree Days 16 (Base 50)    
Moisture  
Dew Point 60 °F    
Average Humidity 81    
Maximum Humidity 94    
Minimum Humidity 53    
Precipitation  
Precipitation 0.00 in - - ()
Sea Level Pressure  
Sea Level Pressure 30.02 in    
Wind  
Wind Speed 2 mph ()    
Max Wind Speed 8 mph    
Max Gust Speed -    
Visibility 10.3 miles    
Events      
T = Trace of Precipitation, MM = Missing Value Source: Averaged Metar Reports

Daily Weather History Graph

Daily Weather History Graph

Search for Another Location

Airport or City:

Trip Planner

Search our weather history database for the weather conditions in past years. The results will help you decide how hot, cold, wet, or windy it might be!

Date:

Astronomy

Oct. 07, 2012 Rise Set
Actual Time 6:59 AM CEST 6:24 PM CEST
Civil Twilight 6:30 AM CEST 6:53 PM CEST
Nautical Twilight 5:57 AM CEST 7:26 PM CEST
Astronomical Twilight 5:24 AM CEST 7:59 PM CEST
Moon 11:12 PM CEST (10/7) 1:32 PM CEST (10/7)
Length of Visible Light 12h 22m
Length of Day
11h 25m
Waning Gibbous, 58% of the Moon is Illuminated
Oct 7
Waning Gibbous
Oct 8
Last Quarter
Oct 15
New
Oct 22
First Quarter
Oct 29
Full

Hourly Weather History & Observations

Time (CEST) Temp. Dew Point Humidity Pressure Visibility Wind Dir Wind Speed Gust Speed Precip Events Conditions
12:00 AM 62.6 °F 59.0 °F 88% 30.09 in - Calm Calm - N/A   Clear
12:30 AM 60.8 °F 57.2 °F 88% 30.09 in - Variable 3.5 mph - N/A   Clear
1:00 AM 60.8 °F 57.2 °F 88% 30.09 in - Variable 1.2 mph - N/A   Clear
1:30 AM 60.8 °F 57.2 °F 88% 30.09 in - Calm Calm - N/A   Clear
2:00 AM 60 °F 57 °F 87% 30.11 in 12 mi NW 2.2 mph - -  
2:00 AM 60.8 °F 57.2 °F 88% 30.09 in - Variable 2.3 mph - N/A   Clear
2:30 AM 60.8 °F 57.2 °F 88% 30.09 in - Variable 1.2 mph - N/A   Clear
3:00 AM 60.8 °F 57.2 °F 88% 30.09 in - NNW 4.6 mph - N/A   Clear
3:30 AM 60.8 °F 57.2 °F 88% 30.06 in - Variable 2.3 mph - N/A   Clear
4:00 AM 60.8 °F 57.2 °F 88% 30.06 in - Calm Calm - N/A   Clear
4:30 AM 60.8 °F 57.2 °F 88% 30.06 in - Calm Calm - N/A   Clear
5:00 AM 60 °F 57 °F 87% 30.08 in 12 mi Calm Calm - -  
5:00 AM 59.0 °F 57.2 °F 94% 30.06 in - Calm Calm - N/A   Clear
5:30 AM 59.0 °F 57.2 °F 94% 30.06 in - Calm Calm - N/A   Clear
6:00 AM 59.0 °F 57.2 °F 94% 30.06 in - Calm Calm - N/A   Clear
6:30 AM 59.0 °F 55.4 °F 88% 30.04 in - Variable 2.3 mph - N/A   Clear
7:00 AM 57.2 °F 55.4 °F 94% 30.04 in - Variable 3.5 mph - N/A   Clear
7:30 AM 59.0 °F 55.4 °F 88% 30.04 in - Calm Calm - N/A   Clear
8:00 AM 60 °F 58 °F 90% 30.06 in 12 mi Calm Calm - -   Clear
8:00 AM 59.0 °F 57.2 °F 94% 30.04 in - Calm Calm - N/A   Clear
8:30 AM 62.6 °F 60.8 °F 94% 30.06 in - Calm Calm - N/A   Clear
9:00 AM 62.6 °F 60.8 °F 94% 30.06 in - Calm Calm - N/A   Clear
9:30 AM 64.4 °F 60.8 °F 88% 30.06 in - Calm Calm - N/A   Clear
10:00 AM 66.2 °F 62.6 °F 88% 30.04 in - Variable 1.2 mph - N/A   Clear
10:30 AM 68.0 °F 62.6 °F 83% 30.04 in - Variable 1.2 mph - N/A   Clear
11:00 AM 70 °F 62 °F 69% 30.05 in 19 mi East 4.5 mph - -   Partly Cloudy
11:00 AM 69.8 °F 62.6 °F 78% 30.04 in - Variable 3.5 mph - N/A   Clear
11:30 AM 69.8 °F 60.8 °F 73% 30.04 in - East 4.6 mph - N/A   Clear
12:00 PM 69.8 °F 62.6 °F 78% 30.04 in - Variable 3.5 mph - N/A   Clear
12:30 PM 71.6 °F 64.4 °F 78% 30.01 in - ESE 5.8 mph - N/A   Clear
1:00 PM 71.6 °F 62.6 °F 73% 30.01 in - Variable 3.5 mph - N/A   Clear
1:30 PM 71.6 °F 60.8 °F 69% 30.01 in - Variable 3.5 mph - N/A   Clear
2:00 PM 74 °F 60 °F 53% 29.99 in 19 mi East 4.5 mph - -   Scattered Clouds
2:00 PM 75.2 °F 60.8 °F 61% 29.98 in - East 4.6 mph - N/A   Clear
2:30 PM 73.4 °F 60.8 °F 65% 29.98 in - Variable 3.5 mph - N/A   Clear
3:00 PM 73.4 °F 57.2 °F 57% 29.98 in - ESE 4.6 mph - N/A   Clear
3:30 PM 73.4 °F 60.8 °F 65% 29.98 in - Variable 2.3 mph - N/A   Clear
4:00 PM 73.4 °F 62.6 °F 69% 29.95 in - WSW 8.1 mph - N/A   Clear
4:30 PM 73.4 °F 60.8 °F 65% 29.95 in - SW 6.9 mph - N/A   Clear
5:00 PM 72 °F 61 °F 59% 29.96 in 31 mi WSW 4.5 mph - -   Partly Cloudy
5:00 PM 71.6 °F 60.8 °F 69% 29.95 in - WSW 4.6 mph - N/A   Clear
5:30 PM 69.8 °F 62.6 °F 78% 29.95 in - Variable 3.5 mph - N/A   Clear
6:00 PM 69.8 °F 64.4 °F 83% 29.95 in - SW 4.6 mph - N/A   Clear
6:30 PM 69.8 °F 64.4 °F 83% 29.95 in 6.2 mi Variable 2.3 mph - N/A   Partly Cloudy
7:00 PM 69.8 °F 64.4 °F 83% 29.95 in 6.2 mi Variable 2.3 mph - N/A   Scattered Clouds
7:30 PM 69.8 °F 62.6 °F 78% 29.95 in 6.2 mi Variable 1.2 mph - N/A   Scattered Clouds
8:00 PM 68 °F 63 °F 78% 29.96 in 19 mi Calm Calm - -   Scattered Clouds
8:00 PM 68.0 °F 62.6 °F 83% 29.95 in 6.2 mi Calm Calm - N/A   Partly Cloudy
8:30 PM 68.0 °F 62.6 °F 83% 29.95 in 6.2 mi Variable 2.3 mph - N/A   Scattered Clouds
9:00 PM 68.0 °F 62.6 °F 83% 29.95 in 6.2 mi Variable 3.5 mph - N/A   Partly Cloudy
9:30 PM 66.2 °F 60.8 °F 83% 29.98 in - Variable 3.5 mph - N/A   Clear
10:00 PM 64.4 °F 60.8 °F 88% 29.98 in 6.2 mi NNW 5.8 mph - N/A   Partly Cloudy
10:30 PM 64.4 °F 60.8 °F 88% 29.98 in 6.2 mi Variable 3.5 mph - N/A   Partly Cloudy
11:00 PM 64 °F 60 °F 81% 29.98 in 12 mi WNW 4.5 mph - -   Partly Cloudy
11:00 PM 64.4 °F 59.0 °F 83% 29.98 in - Variable 3.5 mph - N/A   Clear
11:30 PM 64.4 °F 59.0 °F 83% 29.95 in - Variable 1.2 mph - N/A   Clear